Погода в Жигулёвске

Россия / Самарская область     53°24′06″N   49°29′40″E
темп.,
°C
ветер,
м/с
пор.,
м/с
влажн.,
%
обл.,
%
осадки,
мм/ч
давл.,
гПа
погр.,
м
20 сентября, пн
пн2001:00+7всв345772 0.0 1025159
04:00+6в346185 0.0 1026145
07:00+6в3665100 0.0 1025188
10:00+9в345099 0.0 1026573
13:00+12в4440100 0.0 10251079
16:00+13вюв5638100 0.0 10241215
19:00+11в474496 0.0 1024569
22:00+10в51048100 0.0 1024421
21 сентября, вт
вт2101:00+9в61251100 0.0 1023420
04:00+9вюв51053100 0.0 1023334
07:00+8вюв51160100 0.1 1022426
10:00+8в41060100 0.4 1022498
13:00+10в51153100 0.1 1020507
16:00+10вюв6125290 0.1 1019522
19:00+11вюв6125083 0.0 1017442
22:00+10в71551100 0.0 1016402
22 сентября, ср
ср2201:00+11вюв7154894 0.0 1014399
04:00+10вюв61160100 0.2 1014285
07:00+10юв51191100 0.8 1013294
10:00+12вюв51097100 2.8 1014338
13:00+14ююв596299 1.1 1015482
16:00+12юв41079100 1.6 1016478
19:00+12вюв61277100 0.1 1016455
22:00+12юв51074100 0.1 1017406
23 сентября, чт
чт2301:00+12вюв487799 0.0 1017311
04:00+12юв51086100 0.5 1018405
07:00+11вюв51077100 0.8 1019334
10:00+12юв51067100 0.9 1019379
13:00+11юв3983100 1.0 1020275
16:00+9юв81589100 7.0 1020559
19:00+10ююв71484100 0.6 1020677
22:00+11юв61380100 0.6 1019546
24 сентября, пт
пт2401:00+11юв81779100 0.0 1017589
04:00+13юв91763100 0.0 1017643
07:00+13юв81659100 0.0 1016513
10:00+14юв91651100 0.0 1015699
13:00+14юв71343100 0.0 1014720
16:00+18юв61234100 0.0 1010858
19:00+17юв61433100 0.0 1009449
22:00+18юв91729100 0.0 1006630